Time,TemperatureF,DewpointF,PressureIn,WindDirection,WindDirectionDegrees,WindSpeedMPH,WindSpeedGustMPH,Humidity,HourlyPrecipIn,Conditions,Clouds,dailyrainin,SolarRadiationWatts/m^2,SoftwareType,DateUTC
2013-08-06 00:02:00,63.2,53.3,29.94,NNE,23,1.0,2.0,70,0.00,,,0.00,0,Wunderground v.1.15,2013-08-06 07:02:00,
2013-08-06 00:07:00,63.2,53.3,29.94,NNE,16,1.0,4.0,70,0.00,,,0.00,0,Wunderground v.1.15,2013-08-06 07:07:00,
2013-08-06 00:12:00,63.2,53.3,29.94,SW,232,0.0,1.0,70,0.00,,,0.00,0,Wunderground v.1.15,2013-08-06 07:12:00,
2013-08-06 00:17:00,63.1,53.2,29.94,NNE,17,0.0,1.0,70,0.00,,,0.00,0,Wunderground v.1.15,2013-08-06 07:17:00,
2013-08-06 00:22:00,63.1,53.2,29.94,NNW,331,2.0,2.0,70,0.00,,,0.00,0,Wunderground v.1.15,2013-08-06 07:22:00,
2013-08-06 00:28:00,62.9,53.0,29.94,NNW,337,2.0,2.0,70,0.00,,,0.00,0,Wunderground v.1.15,2013-08-06 07:28:00,
2013-08-06 00:33:00,62.7,52.8,29.95,WNW,300,1.0,1.0,70,0.00,,,0.00,0,Wunderground v.1.15,2013-08-06 07:33:00,
2013-08-06 00:38:00,62.7,53.2,29.95,NNW,327,0.0,2.0,71,0.00,,,0.00,0,Wunderground v.1.15,2013-08-06 07:38:00,
2013-08-06 00:43:00,62.6,53.1,29.95,SW,235,0.0,0.0,71,0.00,,,0.00,0,Wunderground v.1.15,2013-08-06 07:43:00,
2013-08-06 00:48:00,62.4,52.9,29.95,SW,235,0.0,0.0,71,0.00,,,0.00,0,Wunderground v.1.15,2013-08-06 07:48:00,
2013-08-06 00:54:00,62.4,53.3,29.95,SW,235,1.0,1.0,72,0.00,,,0.00,0,Wunderground v.1.15,2013-08-06 07:54:00,
2013-08-06 00:59:00,62.3,53.2,29.95,SSW,192,1.0,2.0,72,0.00,,,0.00,0,Wunderground v.1.15,2013-08-06 07:59:00,
2013-08-06 01:04:00,62.1,53.3,29.95,SSW,205,0.0,2.0,73,0.00,,,0.00,0,Wunderground v.1.15,2013-08-06 08:04:00,
2013-08-06 01:09:00,61.8,53.1,29.95,SSW,205,0.0,2.0,73,0.00,,,0.00,0,Wunderground v.1.15,2013-08-06 08:09:00,
2013-08-06 01:14:00,61.6,53.2,29.95,SSW,205,3.0,3.0,74,0.00,,,0.00,0,Wunderground v.1.15,2013-08-06 08:14:00,
2013-08-06 01:19:00,61.3,53.3,29.95,SSW,205,1.0,3.0,75,0.00,,,0.00,0,Wunderground v.1.15,2013-08-06 08:19:00,
2013-08-06 01:24:00,61.0,53.4,29.95,SSW,205,0.0,1.0,76,0.00,,,0.00,0,Wunderground v.1.15,2013-08-06 08:24:00,
2013-08-06 01:29:00,60.7,53.1,29.95,SSW,205,0.0,1.0,76,0.00,,,0.00,0,Wunderground v.1.15,2013-08-06 08:29:00,
2013-08-06 01:34:00,60.5,53.3,29.96,SSW,205,1.0,1.0,77,0.00,,,0.00,0,Wunderground v.1.15,2013-08-06 08:34:00,
2013-08-06 01:39:00,60.4,53.2,29.96,SSW,205,1.0,2.0,77,0.00,,,0.00,0,Wunderground v.1.15,2013-08-06 08:39:00,
2013-08-06 01:44:00,60.1,53.2,29.96,SSW,205,0.0,2.0,78,0.00,,,0.00,0,Wunderground v.1.15,2013-08-06 08:44:00,
2013-08-06 01:50:00,59.8,52.9,29.95,SSW,205,0.0,0.0,78,0.00,,,0.00,0,Wunderground v.1.15,2013-08-06 08:50:00,
2013-08-06 01:55:00,59.6,53.1,29.95,SSW,205,2.0,2.0,79,0.00,,,0.00,0,Wunderground v.1.15,2013-08-06 08:55:00,
2013-08-06 02:00:00,59.5,53.0,29.95,SSW,205,0.0,0.0,79,0.00,,,0.00,0,Wunderground v.1.15,2013-08-06 09:00:00,
2013-08-06 02:05:00,59.3,53.1,29.95,SSW,205,2.0,2.0,80,0.00,,,0.00,0,Wunderground v.1.15,2013-08-06 09:05:00,
2013-08-06 02:10:00,59.2,53.0,29.95,SSW,205,0.0,1.0,80,0.00,,,0.00,0,Wunderground v.1.15,2013-08-06 09:10:00,
2013-08-06 02:15:00,58.9,53.1,29.95,SSW,205,0.0,2.0,81,0.00,,,0.00,0,Wunderground v.1.15,2013-08-06 09:15:00,
2013-08-06 02:20:00,58.7,52.9,29.95,SSW,205,0.0,0.0,81,0.00,,,0.00,0,Wunderground v.1.15,2013-08-06 09:20:00,
2013-08-06 02:25:00,58.6,52.8,29.95,SSW,205,0.0,1.0,81,0.00,,,0.00,0,Wunderground v.1.15,2013-08-06 09:25:00,
2013-08-06 02:30:00,58.4,52.6,29.95,SSW,205,0.0,0.0,81,0.00,,,0.00,0,Wunderground v.1.15,2013-08-06 09:30:00,
2013-08-06 02:35:00,58.4,52.9,29.95,SSW,205,0.0,0.0,82,0.00,,,0.00,0,Wunderground v.1.15,2013-08-06 09:35:00,
2013-08-06 02:40:00,58.3,52.8,29.95,SSW,205,0.0,0.0,82,0.00,,,0.00,0,Wunderground v.1.15,2013-08-06 09:40:00,
2013-08-06 02:45:00,58.1,52.6,29.95,SSW,210,0.0,1.0,82,0.00,,,0.00,0,Wunderground v.1.15,2013-08-06 09:45:00,
2013-08-06 02:50:00,58.0,52.9,29.95,SSW,210,0.0,0.0,83,0.00,,,0.00,0,Wunderground v.1.15,2013-08-06 09:50:00,
2013-08-06 02:55:00,58.0,52.9,29.95,SSW,210,0.0,1.0,83,0.00,,,0.00,0,Wunderground v.1.15,2013-08-06 09:55:00,
2013-08-06 03:00:00,57.8,52.7,29.95,SSW,210,1.0,2.0,83,0.00,,,0.00,0,Wunderground v.1.15,2013-08-06 10:00:00,
2013-08-06 03:05:00,57.6,52.8,29.95,SSW,210,0.0,2.0,84,0.00,,,0.00,0,Wunderground v.1.15,2013-08-06 10:05:00,
2013-08-06 03:10:00,57.5,52.7,29.95,SSW,210,0.0,0.0,84,0.00,,,0.00,0,Wunderground v.1.15,2013-08-06 10:10:00,
2013-08-06 03:15:00,57.5,52.7,29.95,SSW,210,0.0,1.0,84,0.00,,,0.00,0,Wunderground v.1.15,2013-08-06 10:15:00,
2013-08-06 03:20:00,57.5,52.7,29.95,SSW,210,0.0,0.0,84,0.00,,,0.00,0,Wunderground v.1.15,2013-08-06 10:20:00,
2013-08-06 03:25:00,57.3,52.5,29.95,SSW,210,0.0,1.0,84,0.00,,,0.00,0,Wunderground v.1.15,2013-08-06 10:25:00,
2013-08-06 03:30:00,57.3,52.5,29.95,SSW,210,0.0,1.0,84,0.00,,,0.00,0,Wunderground v.1.15,2013-08-06 10:30:00,
2013-08-06 03:35:00,57.3,52.5,29.95,SSW,210,0.0,1.0,84,0.00,,,0.00,0,Wunderground v.1.15,2013-08-06 10:35:00,
2013-08-06 03:40:00,57.2,52.4,29.95,SSW,210,0.0,0.0,84,0.00,,,0.00,0,Wunderground v.1.15,2013-08-06 10:40:00,
2013-08-06 03:45:00,57.0,52.2,29.95,SSW,210,0.0,1.0,84,0.00,,,0.00,0,Wunderground v.1.15,2013-08-06 10:45:00,
2013-08-06 03:50:00,56.9,52.1,29.95,SSW,210,0.0,0.0,84,0.00,,,0.00,0,Wunderground v.1.15,2013-08-06 10:50:00,
2013-08-06 03:55:00,56.7,51.9,29.95,SSW,210,0.0,0.0,84,0.00,,,0.00,0,Wunderground v.1.15,2013-08-06 10:55:00,
2013-08-06 04:00:00,56.6,52.1,29.95,SSW,210,0.0,0.0,85,0.00,,,0.00,0,Wunderground v.1.15,2013-08-06 11:00:00,
2013-08-06 04:05:00,56.5,52.0,29.95,SSW,210,2.0,2.0,85,0.00,,,0.00,0,Wunderground v.1.15,2013-08-06 11:05:00,
2013-08-06 04:10:00,56.3,51.8,29.95,SSW,210,0.0,0.0,85,0.00,,,0.00,0,Wunderground v.1.15,2013-08-06 11:10:00,
2013-08-06 04:15:00,56.2,52.1,29.95,SSW,210,0.0,1.0,86,0.00,,,0.00,0,Wunderground v.1.15,2013-08-06 11:15:00,
2013-08-06 04:20:00,56.0,51.9,29.95,SSW,210,1.0,1.0,86,0.00,,,0.00,0,Wunderground v.1.15,2013-08-06 11:20:00,
2013-08-06 04:25:00,55.9,51.8,29.95,SSW,210,0.0,2.0,86,0.00,,,0.00,0,Wunderground v.1.15,2013-08-06 11:25:00,
2013-08-06 04:30:00,55.7,51.9,29.95,SSW,210,1.0,1.0,87,0.00,,,0.00,0,Wunderground v.1.15,2013-08-06 11:30:00,
2013-08-06 04:35:00,55.7,51.9,29.96,SSW,210,1.0,1.0,87,0.00,,,0.00,0,Wunderground v.1.15,2013-08-06 11:35:00,
2013-08-06 04:40:00,55.6,51.8,29.96,SSW,210,0.0,1.0,87,0.00,,,0.00,0,Wunderground v.1.15,2013-08-06 11:40:00,
2013-08-06 04:45:00,55.4,51.9,29.96,SSW,210,1.0,1.0,88,0.00,,,0.00,0,Wunderground v.1.15,2013-08-06 11:45:00,
2013-08-06 04:51:00,55.3,51.8,29.96,SSW,210,1.0,1.0,88,0.00,,,0.00,0,Wunderground v.1.15,2013-08-06 11:51:00,
2013-08-06 04:56:00,55.3,51.8,29.96,SSW,210,0.0,1.0,88,0.00,,,0.00,0,Wunderground v.1.15,2013-08-06 11:56:00,
2013-08-06 05:01:00,55.1,51.6,29.96,SSW,210,1.0,2.0,88,0.00,,,0.00,0,Wunderground v.1.15,2013-08-06 12:01:00,
2013-08-06 05:06:00,55.1,51.9,29.96,SSW,210,0.0,2.0,89,0.00,,,0.00,0,Wunderground v.1.15,2013-08-06 12:06:00,
2013-08-06 05:11:00,55.0,51.8,29.96,SSW,210,0.0,0.0,89,0.00,,,0.00,0,Wunderground v.1.15,2013-08-06 12:11:00,
2013-08-06 05:16:00,55.0,51.8,29.96,SSW,210,1.0,1.0,89,0.00,,,0.00,0,Wunderground v.1.15,2013-08-06 12:16:00,
2013-08-06 05:21:00,54.8,51.6,29.96,SSW,210,1.0,2.0,89,0.00,,,0.00,0,Wunderground v.1.15,2013-08-06 12:21:00,
2013-08-06 05:26:00,54.7,51.5,29.96,SSW,210,0.0,2.0,89,0.00,,,0.00,0,Wunderground v.1.15,2013-08-06 12:26:00,
2013-08-06 05:31:00,54.7,51.8,29.96,SSW,210,0.0,1.0,90,0.00,,,0.00,0,Wunderground v.1.15,2013-08-06 12:31:00,
2013-08-06 05:36:00,54.5,51.6,29.96,SSW,210,0.0,1.0,90,0.00,,,0.00,0,Wunderground v.1.15,2013-08-06 12:36:00,
2013-08-06 05:41:00,54.5,51.6,29.96,SSW,210,0.0,0.0,90,0.00,,,0.00,0,Wunderground v.1.15,2013-08-06 12:41:00,
2013-08-06 05:46:00,54.5,51.6,29.96,SSW,210,0.0,1.0,90,0.00,,,0.00,0,Wunderground v.1.15,2013-08-06 12:46:00,
2013-08-06 05:51:00,54.4,51.5,29.96,SSW,210,0.0,1.0,90,0.00,,,0.00,0,Wunderground v.1.15,2013-08-06 12:51:00,
2013-08-06 05:56:00,54.4,51.5,29.96,SSW,210,0.0,1.0,90,0.00,,,0.00,0,Wunderground v.1.15,2013-08-06 12:56:00,
2013-08-06 06:01:00,54.4,51.5,29.96,SSW,210,1.0,2.0,90,0.00,,,0.00,5,Wunderground v.1.15,2013-08-06 13:01:00,
2013-08-06 06:06:00,54.2,51.3,29.96,SSW,210,2.0,3.0,90,0.00,,,0.00,16,Wunderground v.1.15,2013-08-06 13:06:00,
2013-08-06 06:11:00,54.2,51.6,29.96,SSW,210,2.0,2.0,91,0.00,,,0.00,23,Wunderground v.1.15,2013-08-06 13:11:00,
2013-08-06 06:16:00,54.4,51.8,29.97,SSW,210,1.0,3.0,91,0.00,,,0.00,32,Wunderground v.1.15,2013-08-06 13:16:00,
2013-08-06 06:21:00,54.4,51.8,29.97,SSW,210,2.0,2.0,91,0.00,,,0.00,39,Wunderground v.1.15,2013-08-06 13:21:00,
2013-08-06 06:26:00,54.5,51.9,29.97,SSW,210,1.0,2.0,91,0.00,,,0.00,46,Wunderground v.1.15,2013-08-06 13:26:00,
2013-08-06 06:31:00,54.7,52.1,29.97,SSW,210,0.0,1.0,91,0.00,,,0.00,53,Wunderground v.1.15,2013-08-06 13:31:00,
2013-08-06 06:36:00,54.8,52.2,29.97,SSW,210,0.0,1.0,91,0.00,,,0.00,58,Wunderground v.1.15,2013-08-06 13:36:00,
2013-08-06 06:41:00,55.0,52.7,29.97,SSW,211,0.0,0.0,92,0.00,,,0.00,60,Wunderground v.1.15,2013-08-06 13:41:00,
2013-08-06 06:46:00,55.6,53.3,29.98,SSW,210,0.0,3.0,92,0.00,,,0.00,65,Wunderground v.1.15,2013-08-06 13:46:00,
2013-08-06 06:51:00,56.5,54.5,29.98,SSW,210,0.0,2.0,93,0.00,,,0.00,67,Wunderground v.1.15,2013-08-06 13:51:00,
2013-08-06 06:56:00,57.0,54.4,29.98,NW,320,0.0,3.0,91,0.00,,,0.00,67,Wunderground v.1.15,2013-08-06 13:56:00,
2013-08-06 07:01:00,57.6,54.7,29.98,NW,321,1.0,2.0,90,0.00,,,0.00,69,Wunderground v.1.15,2013-08-06 14:01:00,
2013-08-06 07:06:00,58.3,55.1,29.98,NNW,329,0.0,2.0,89,0.00,,,0.00,81,Wunderground v.1.15,2013-08-06 14:06:00,
2013-08-06 07:11:00,58.7,55.2,29.98,NNW,329,1.0,2.0,88,0.00,,,0.00,102,Wunderground v.1.15,2013-08-06 14:11:00,
2013-08-06 07:16:00,59.3,55.4,29.99,NNW,329,2.0,2.0,87,0.00,,,0.00,127,Wunderground v.1.15,2013-08-06 14:16:00,
2013-08-06 07:21:00,59.8,55.3,29.99,North,350,1.0,2.0,85,0.00,,,0.00,165,Wunderground v.1.15,2013-08-06 14:21:00,
2013-08-06 07:26:00,60.1,54.9,29.99,North,5,2.0,3.0,83,0.00,,,0.00,202,Wunderground v.1.15,2013-08-06 14:26:00,
2013-08-06 07:31:00,60.4,54.9,29.99,North,5,1.0,2.0,82,0.00,,,0.00,232,Wunderground v.1.15,2013-08-06 14:31:00,
2013-08-06 07:36:00,60.9,55.4,29.99,North,5,1.0,3.0,82,0.00,,,0.00,248,Wunderground v.1.15,2013-08-06 14:36:00,
2013-08-06 07:41:00,61.3,55.4,29.99,North,5,1.0,3.0,81,0.00,,,0.00,262,Wunderground v.1.15,2013-08-06 14:41:00,
2013-08-06 07:46:00,61.5,54.9,29.99,NNE,26,1.0,3.0,79,0.00,,,0.00,276,Wunderground v.1.15,2013-08-06 14:46:00,
2013-08-06 07:51:00,61.8,55.2,29.99,NNE,26,0.0,2.0,79,0.00,,,0.00,290,Wunderground v.1.15,2013-08-06 14:51:00,
2013-08-06 07:56:00,62.1,55.9,29.99,NNE,26,1.0,2.0,80,0.00,,,0.00,302,Wunderground v.1.15,2013-08-06 14:56:00,
2013-08-06 08:01:00,62.4,55.8,29.99,NNE,26,0.0,1.0,79,0.00,,,0.00,316,Wunderground v.1.15,2013-08-06 15:01:00,
2013-08-06 08:06:00,62.9,55.9,29.99,NNE,26,1.0,2.0,78,0.00,,,0.00,330,Wunderground v.1.15,2013-08-06 15:06:00,
2013-08-06 08:11:00,63.4,56.4,29.99,NNE,26,0.0,1.0,78,0.00,,,0.00,343,Wunderground v.1.15,2013-08-06 15:11:00,
2013-08-06 08:16:00,64.0,56.6,29.99,NNE,26,2.0,2.0,77,0.00,,,0.00,360,Wunderground v.1.15,2013-08-06 15:16:00,
2013-08-06 08:21:00,64.3,56.2,29.99,NNE,26,1.0,2.0,75,0.00,,,0.00,373,Wunderground v.1.15,2013-08-06 15:21:00,
2013-08-06 08:26:00,64.5,55.7,29.99,NNE,27,3.0,4.0,73,0.00,,,0.00,388,Wunderground v.1.15,2013-08-06 15:26:00,
2013-08-06 08:31:00,64.2,56.1,29.99,NNE,32,4.0,4.0,75,0.00,,,0.00,403,Wunderground v.1.15,2013-08-06 15:31:00,
2013-08-06 08:36:00,63.9,56.2,29.99,NE,40,4.0,5.0,76,0.00,,,0.00,420,Wunderground v.1.15,2013-08-06 15:36:00,
2013-08-06 08:41:00,63.7,56.0,29.99,NE,44,4.0,5.0,76,0.00,,,0.00,434,Wunderground v.1.15,2013-08-06 15:41:00,
2013-08-06 08:46:00,63.4,55.7,29.99,NE,47,5.0,7.0,76,0.00,,,0.00,448,Wunderground v.1.15,2013-08-06 15:46:00,
2013-08-06 08:51:00,63.1,55.8,29.99,NE,43,4.0,6.0,77,0.00,,,0.00,457,Wunderground v.1.15,2013-08-06 15:51:00,
2013-08-06 08:56:00,63.1,56.1,29.99,NE,38,4.0,6.0,78,0.00,,,0.00,475,Wunderground v.1.15,2013-08-06 15:56:00,
2013-08-06 09:01:00,63.1,56.1,30.00,NE,42,5.0,6.0,78,0.00,,,0.00,490,Wunderground v.1.15,2013-08-06 16:01:00,
2013-08-06 09:06:00,63.2,56.6,30.00,NNE,27,2.0,6.0,79,0.00,,,0.00,504,Wunderground v.1.15,2013-08-06 16:06:00,
2013-08-06 09:11:00,63.4,56.4,30.00,NE,38,1.0,4.0,78,0.00,,,0.00,513,Wunderground v.1.15,2013-08-06 16:11:00,
2013-08-06 09:16:00,63.7,56.7,30.00,NE,36,2.0,4.0,78,0.00,,,0.00,527,Wunderground v.1.15,2013-08-06 16:16:00,
2013-08-06 09:21:00,63.9,56.9,30.00,NE,36,2.0,3.0,78,0.00,,,0.00,543,Wunderground v.1.15,2013-08-06 16:21:00,
2013-08-06 09:26:00,64.2,56.8,30.00,NE,36,1.0,4.0,77,0.00,,,0.00,578,Wunderground v.1.15,2013-08-06 16:26:00,
2013-08-06 09:31:00,64.3,56.6,30.00,NNE,26,2.0,3.0,76,0.00,,,0.00,571,Wunderground v.1.15,2013-08-06 16:31:00,
2013-08-06 09:36:00,64.2,56.8,30.00,NNE,27,1.0,4.0,77,0.00,,,0.00,584,Wunderground v.1.15,2013-08-06 16:36:00,
2013-08-06 09:41:00,64.3,56.9,30.00,NNE,27,1.0,2.0,77,0.00,,,0.00,594,Wunderground v.1.15,2013-08-06 16:41:00,
2013-08-06 09:46:00,64.3,56.9,29.99,NNE,27,2.0,4.0,77,0.00,,,0.00,605,Wunderground v.1.15,2013-08-06 16:46:00,
2013-08-06 09:51:00,64.5,57.1,29.99,NNE,27,3.0,4.0,77,0.00,,,0.00,624,Wunderground v.1.15,2013-08-06 16:51:00,
2013-08-06 09:56:00,64.5,56.8,29.99,NNE,27,1.0,4.0,76,0.00,,,0.00,631,Wunderground v.1.15,2013-08-06 16:56:00,
2013-08-06 10:01:00,64.3,56.9,29.99,NNE,27,2.0,3.0,77,0.00,,,0.00,566,Wunderground v.1.15,2013-08-06 17:01:00,
2013-08-06 10:06:00,64.2,57.2,29.99,NNE,26,2.0,4.0,78,0.00,,,0.00,617,Wunderground v.1.15,2013-08-06 17:06:00,
2013-08-06 10:11:00,64.2,57.2,29.99,NNE,26,1.0,2.0,78,0.00,,,0.00,545,Wunderground v.1.15,2013-08-06 17:11:00,
2013-08-06 10:16:00,64.2,57.2,29.99,NNE,26,2.0,4.0,78,0.00,,,0.00,679,Wunderground v.1.15,2013-08-06 17:16:00,
2013-08-06 10:21:00,64.2,57.2,29.99,NNE,17,3.0,3.0,78,0.00,,,0.00,687,Wunderground v.1.15,2013-08-06 17:21:00,
2013-08-06 10:26:00,64.3,57.3,29.99,NNE,17,1.0,4.0,78,0.00,,,0.00,700,Wunderground v.1.15,2013-08-06 17:26:00,
2013-08-06 10:27:00,64.3,57.3,29.99,NNE,17,1.0,4.0,78,0.00,,,0.00,701,Wunderground v.1.15,2013-08-06 17:27:00,
2013-08-06 10:32:00,64.5,57.1,29.99,NNE,17,1.0,3.0,77,0.00,,,0.00,712,Wunderground v.1.15,2013-08-06 17:32:00,
2013-08-06 10:37:00,64.8,57.8,29.99,NNE,33,1.0,4.0,78,0.00,,,0.00,724,Wunderground v.1.15,2013-08-06 17:37:00,
2013-08-06 10:42:00,65.2,57.8,29.99,NNE,33,1.0,3.0,77,0.00,,,0.00,731,Wunderground v.1.15,2013-08-06 17:42:00,
2013-08-06 10:47:00,65.3,57.2,29.99,NNE,33,2.0,4.0,75,0.00,,,0.00,740,Wunderground v.1.15,2013-08-06 17:47:00,
2013-08-06 10:52:00,65.3,57.2,29.99,NNE,33,3.0,4.0,75,0.00,,,0.00,752,Wunderground v.1.15,2013-08-06 17:52:00,
2013-08-06 10:57:00,65.2,57.4,29.99,NNE,33,2.0,4.0,76,0.00,,,0.00,761,Wunderground v.1.15,2013-08-06 17:57:00,
2013-08-06 11:02:00,65.5,58.1,29.99,NNE,33,2.0,3.0,77,0.00,,,0.00,770,Wunderground v.1.15,2013-08-06 18:02:00,
2013-08-06 11:07:00,65.8,58.0,29.99,NNE,33,3.0,4.0,76,0.00,,,0.00,779,Wunderground v.1.15,2013-08-06 18:07:00,
2013-08-06 11:12:00,65.8,57.7,29.99,NNE,33,2.0,4.0,75,0.00,,,0.00,786,Wunderground v.1.15,2013-08-06 18:12:00,
2013-08-06 11:17:00,66.0,57.8,29.98,NE,34,1.0,4.0,75,0.00,,,0.00,795,Wunderground v.1.15,2013-08-06 18:17:00,
2013-08-06 11:22:00,66.0,57.8,29.98,NE,34,2.0,4.0,75,0.00,,,0.00,803,Wunderground v.1.15,2013-08-06 18:22:00,
2013-08-06 11:27:00,66.0,58.2,29.98,NE,38,2.0,5.0,76,0.00,,,0.00,810,Wunderground v.1.15,2013-08-06 18:27:00,
2013-08-06 11:32:00,66.0,57.8,29.98,North,11,2.0,5.0,75,0.00,,,0.00,816,Wunderground v.1.15,2013-08-06 18:32:00,
2013-08-06 11:37:00,66.0,58.2,29.98,NE,37,3.0,5.0,76,0.00,,,0.00,823,Wunderground v.1.15,2013-08-06 18:37:00,
2013-08-06 11:42:00,66.0,58.2,29.98,NNE,19,3.0,5.0,76,0.00,,,0.00,831,Wunderground v.1.15,2013-08-06 18:42:00,
2013-08-06 11:47:00,65.8,58.0,29.98,NNE,32,2.0,5.0,76,0.00,,,0.00,838,Wunderground v.1.15,2013-08-06 18:47:00,
2013-08-06 11:52:00,65.8,58.0,29.98,NNE,32,5.0,5.0,76,0.00,,,0.00,846,Wunderground v.1.15,2013-08-06 18:52:00,
2013-08-06 11:57:00,65.8,58.4,29.98,NNE,29,3.0,5.0,77,0.00,,,0.00,849,Wunderground v.1.15,2013-08-06 18:57:00,
2013-08-06 12:02:00,65.8,58.4,29.98,NNE,19,3.0,4.0,77,0.00,,,0.00,856,Wunderground v.1.15,2013-08-06 19:02:00,
2013-08-06 12:07:00,65.6,57.8,29.98,NNE,26,2.0,4.0,76,0.00,,,0.00,858,Wunderground v.1.15,2013-08-06 19:07:00,
2013-08-06 12:12:00,65.8,58.4,29.98,NNE,14,1.0,3.0,77,0.00,,,0.00,861,Wunderground v.1.15,2013-08-06 19:12:00,
2013-08-06 12:17:00,66.0,58.6,29.97,NNE,28,2.0,4.0,77,0.00,,,0.00,867,Wunderground v.1.15,2013-08-06 19:17:00,
2013-08-06 12:22:00,66.0,58.6,29.97,NE,34,2.0,4.0,77,0.00,,,0.00,874,Wunderground v.1.15,2013-08-06 19:22:00,
2013-08-06 12:27:00,66.0,58.9,29.97,NNE,33,3.0,4.0,78,0.00,,,0.00,874,Wunderground v.1.15,2013-08-06 19:27:00,
2013-08-06 12:32:00,66.0,58.6,29.97,NNE,33,0.0,3.0,77,0.00,,,0.00,879,Wunderground v.1.15,2013-08-06 19:32:00,
2013-08-06 12:37:00,66.1,58.7,29.97,NE,35,2.0,3.0,77,0.00,,,0.00,884,Wunderground v.1.15,2013-08-06 19:37:00,
2013-08-06 12:42:00,66.3,58.9,29.97,NE,35,3.0,3.0,77,0.00,,,0.00,884,Wunderground v.1.15,2013-08-06 19:42:00,
2013-08-06 12:47:00,66.3,58.5,29.97,NE,35,1.0,4.0,76,0.00,,,0.00,886,Wunderground v.1.15,2013-08-06 19:47:00,
2013-08-06 12:52:00,66.3,58.5,29.97,NE,35,2.0,3.0,76,0.00,,,0.00,888,Wunderground v.1.15,2013-08-06 19:52:00,
2013-08-06 12:57:00,66.3,58.1,29.97,NE,35,1.0,3.0,75,0.00,,,0.00,889,Wunderground v.1.15,2013-08-06 19:57:00,
2013-08-06 13:02:00,66.4,59.0,29.97,NE,35,1.0,2.0,77,0.00,,,0.00,889,Wunderground v.1.15,2013-08-06 20:02:00,
2013-08-06 13:07:00,66.6,58.8,29.97,NE,35,1.0,3.0,76,0.00,,,0.00,889,Wunderground v.1.15,2013-08-06 20:07:00,
2013-08-06 13:12:00,66.6,58.4,29.97,NE,35,1.0,2.0,75,0.00,,,0.00,888,Wunderground v.1.15,2013-08-06 20:12:00,
2013-08-06 13:17:00,66.9,58.7,29.97,NE,35,1.0,3.0,75,0.00,,,0.00,891,Wunderground v.1.15,2013-08-06 20:17:00,
2013-08-06 13:22:00,66.9,58.3,29.97,NE,35,1.0,2.0,74,0.00,,,0.00,888,Wunderground v.1.15,2013-08-06 20:22:00,
2013-08-06 13:27:00,67.3,58.7,29.97,NE,35,2.0,3.0,74,0.00,,,0.00,886,Wunderground v.1.15,2013-08-06 20:27:00,
2013-08-06 13:32:00,67.4,58.8,29.97,NE,35,0.0,2.0,74,0.00,,,0.00,886,Wunderground v.1.15,2013-08-06 20:32:00,
2013-08-06 13:37:00,67.3,59.1,29.97,NE,35,0.0,2.0,75,0.00,,,0.00,886,Wunderground v.1.15,2013-08-06 20:37:00,
2013-08-06 13:42:00,67.1,58.5,29.97,NE,35,1.0,2.0,74,0.00,,,0.00,882,Wunderground v.1.15,2013-08-06 20:42:00,
2013-08-06 13:47:00,66.9,58.7,29.96,NE,35,1.0,3.0,75,0.00,,,0.00,882,Wunderground v.1.15,2013-08-06 20:47:00,
2013-08-06 13:52:00,67.1,58.9,29.96,NE,35,1.0,3.0,75,0.00,,,0.00,879,Wunderground v.1.15,2013-08-06 20:52:00,
2013-08-06 13:57:00,66.9,59.1,29.96,NE,35,1.0,3.0,76,0.00,,,0.00,872,Wunderground v.1.15,2013-08-06 20:57:00,
2013-08-06 14:02:00,66.8,58.6,29.96,NE,35,0.0,2.0,75,0.00,,,0.00,868,Wunderground v.1.15,2013-08-06 21:02:00,
2013-08-06 14:07:00,66.6,58.1,29.96,NE,35,1.0,3.0,74,0.00,,,0.00,867,Wunderground v.1.15,2013-08-06 21:07:00,
2013-08-06 14:11:00,66.4,57.9,29.96,NE,35,2.0,2.0,74,0.00,,,0.00,861,Wunderground v.1.15,2013-08-06 21:11:00,
2013-08-06 14:17:00,66.3,57.8,29.96,NE,35,1.0,3.0,74,0.00,,,0.00,854,Wunderground v.1.15,2013-08-06 21:17:00,
2013-08-06 14:21:00,66.0,57.8,29.96,NE,35,0.0,3.0,75,0.00,,,0.00,849,Wunderground v.1.15,2013-08-06 21:21:00,
2013-08-06 14:27:00,66.1,57.9,29.96,NE,35,0.0,3.0,75,0.00,,,0.00,844,Wunderground v.1.15,2013-08-06 21:27:00,
2013-08-06 14:32:00,66.3,58.9,29.96,NE,35,0.0,2.0,77,0.00,,,0.00,838,Wunderground v.1.15,2013-08-06 21:32:00,
2013-08-06 14:37:00,66.4,59.0,29.96,NE,35,1.0,2.0,77,0.00,,,0.00,833,Wunderground v.1.15,2013-08-06 21:37:00,
2013-08-06 14:42:00,66.6,58.4,29.96,NE,35,0.0,1.0,75,0.00,,,0.00,826,Wunderground v.1.15,2013-08-06 21:42:00,
2013-08-06 14:47:00,67.3,58.3,29.96,NE,35,0.0,1.0,73,0.00,,,0.00,823,Wunderground v.1.15,2013-08-06 21:47:00,
2013-08-06 14:52:00,67.6,59.0,29.96,NE,35,0.0,1.0,74,0.00,,,0.00,819,Wunderground v.1.15,2013-08-06 21:52:00,
2013-08-06 14:57:00,67.8,59.6,29.96,NE,35,2.0,2.0,75,0.00,,,0.00,810,Wunderground v.1.15,2013-08-06 21:57:00,
2013-08-06 15:02:00,67.6,58.2,29.94,NE,35,0.0,1.0,72,0.00,,,0.00,805,Wunderground v.1.15,2013-08-06 22:02:00,
2013-08-06 15:07:00,67.8,58.1,29.94,NE,35,1.0,2.0,71,0.00,,,0.00,798,Wunderground v.1.15,2013-08-06 22:07:00,
2013-08-06 15:12:00,68.1,57.5,29.94,NE,35,1.0,2.0,69,0.00,,,0.00,791,Wunderground v.1.15,2013-08-06 22:12:00,
2013-08-06 15:17:00,67.9,57.8,29.94,NE,35,1.0,3.0,70,0.00,,,0.00,780,Wunderground v.1.15,2013-08-06 22:17:00,
2013-08-06 15:22:00,68.3,58.5,29.94,NE,35,0.0,2.0,71,0.00,,,0.00,773,Wunderground v.1.15,2013-08-06 22:22:00,
2013-08-06 15:27:00,68.4,58.6,29.94,NE,35,0.0,2.0,71,0.00,,,0.00,763,Wunderground v.1.15,2013-08-06 22:27:00,
2013-08-06 15:32:00,68.3,58.1,29.94,NE,35,1.0,4.0,70,0.00,,,0.00,752,Wunderground v.1.15,2013-08-06 22:32:00,
2013-08-06 15:37:00,68.1,57.5,29.94,NE,49,0.0,4.0,69,0.00,,,0.00,745,Wunderground v.1.15,2013-08-06 22:37:00,
2013-08-06 15:42:00,68.1,56.7,29.94,East,92,0.0,2.0,67,0.00,,,0.00,733,Wunderground v.1.15,2013-08-06 22:42:00,
2013-08-06 15:47:00,68.6,57.2,29.94,ESE,109,0.0,2.0,67,0.00,,,0.00,722,Wunderground v.1.15,2013-08-06 22:47:00,
2013-08-06 15:52:00,69.4,57.5,29.94,East,97,0.0,1.0,66,0.00,,,0.00,712,Wunderground v.1.15,2013-08-06 22:52:00,
2013-08-06 15:57:00,69.9,58.0,29.94,NE,46,0.0,1.0,66,0.00,,,0.00,701,Wunderground v.1.15,2013-08-06 22:57:00,
2013-08-06 16:02:00,69.8,58.3,29.93,NE,40,2.0,4.0,67,0.00,,,0.00,689,Wunderground v.1.15,2013-08-06 23:02:00,
2013-08-06 16:07:00,69.1,58.1,29.93,NE,51,1.0,4.0,68,0.00,,,0.00,675,Wunderground v.1.15,2013-08-06 23:07:00,
2013-08-06 16:12:00,68.4,57.8,29.93,NE,34,1.0,4.0,69,0.00,,,0.00,654,Wunderground v.1.15,2013-08-06 23:12:00,
2013-08-06 16:17:00,67.9,57.8,29.93,NE,34,0.0,4.0,70,0.00,,,0.00,605,Wunderground v.1.15,2013-08-06 23:17:00,
2013-08-06 16:22:00,67.6,57.5,29.93,NE,34,0.0,1.0,70,0.00,,,0.00,37,Wunderground v.1.15,2013-08-06 23:22:00,
2013-08-06 16:27:00,67.4,57.7,29.93,NNE,32,1.0,1.0,71,0.00,,,0.00,32,Wunderground v.1.15,2013-08-06 23:27:00,
2013-08-06 16:32:00,66.9,56.8,29.93,NE,42,1.0,3.0,70,0.00,,,0.00,35,Wunderground v.1.15,2013-08-06 23:32:00,
2013-08-06 16:37:00,66.4,56.7,29.93,NE,42,1.0,3.0,71,0.00,,,0.00,30,Wunderground v.1.15,2013-08-06 23:37:00,
2013-08-06 16:42:00,66.1,56.8,29.93,NE,36,3.0,4.0,72,0.00,,,0.00,30,Wunderground v.1.15,2013-08-06 23:42:00,
2013-08-06 16:47:00,65.6,55.9,29.93,NNE,20,2.0,5.0,71,0.00,,,0.00,28,Wunderground v.1.15,2013-08-06 23:47:00,
2013-08-06 16:52:00,65.6,56.3,29.93,NNE,17,3.0,5.0,72,0.00,,,0.00,28,Wunderground v.1.15,2013-08-06 23:52:00,
2013-08-06 16:57:00,65.5,56.2,29.93,NNE,17,1.0,5.0,72,0.00,,,0.00,26,Wunderground v.1.15,2013-08-06 23:57:00,
2013-08-06 17:02:00,65.5,56.2,29.93,NNE,19,2.0,5.0,72,0.00,,,0.00,26,Wunderground v.1.15,2013-08-07 00:02:00,
2013-08-06 17:07:00,65.6,55.9,29.93,North,355,1.0,5.0,71,0.00,,,0.00,26,Wunderground v.1.15,2013-08-07 00:07:00,
2013-08-06 17:12:00,66.0,56.7,29.93,NNE,19,2.0,4.0,72,0.00,,,0.00,26,Wunderground v.1.15,2013-08-07 00:12:00,
2013-08-06 17:17:00,66.0,56.7,29.93,North,5,1.0,5.0,72,0.00,,,0.00,25,Wunderground v.1.15,2013-08-07 00:17:00,
2013-08-06 17:22:00,66.1,56.8,29.93,NNE,19,0.0,4.0,72,0.00,,,0.00,25,Wunderground v.1.15,2013-08-07 00:22:00,
2013-08-06 17:27:00,66.1,56.8,29.93,NNE,19,0.0,4.0,72,0.00,,,0.00,25,Wunderground v.1.15,2013-08-07 00:27:00,
2013-08-06 17:32:00,66.1,56.8,29.92,NNE,19,3.0,3.0,72,0.00,,,0.00,25,Wunderground v.1.15,2013-08-07 00:32:00,
2013-08-06 17:37:00,66.1,56.0,29.92,NNE,17,2.0,7.0,70,0.00,,,0.00,25,Wunderground v.1.15,2013-08-07 00:37:00,
2013-08-06 17:42:00,66.4,55.9,29.92,North,360,5.0,7.0,69,0.00,,,0.00,23,Wunderground v.1.15,2013-08-07 00:42:00,
2013-08-06 17:47:00,66.9,56.0,29.92,NNE,15,2.0,7.0,68,0.00,,,0.00,23,Wunderground v.1.15,2013-08-07 00:47:00,
2013-08-06 17:52:00,67.3,56.0,29.92,NNE,15,2.0,5.0,67,0.00,,,0.00,23,Wunderground v.1.15,2013-08-07 00:52:00,
2013-08-06 17:57:00,67.4,56.1,29.92,NNW,330,0.0,5.0,67,0.00,,,0.00,23,Wunderground v.1.15,2013-08-07 00:57:00,
2013-08-06 18:02:00,67.6,55.8,29.91,NW,324,1.0,2.0,66,0.00,,,0.00,23,Wunderground v.1.15,2013-08-07 01:02:00,
2013-08-06 18:07:00,67.8,56.0,29.91,SE,125,0.0,2.0,66,0.00,,,0.00,23,Wunderground v.1.15,2013-08-07 01:07:00,
2013-08-06 18:12:00,67.8,55.6,29.91,SE,125,0.0,1.0,65,0.00,,,0.00,23,Wunderground v.1.15,2013-08-07 01:12:00,
2013-08-06 18:17:00,67.8,54.7,29.91,SE,125,0.0,1.0,63,0.00,,,0.00,21,Wunderground v.1.15,2013-08-07 01:17:00,
2013-08-06 18:22:00,67.9,54.4,29.91,SE,125,0.0,1.0,62,0.00,,,0.00,21,Wunderground v.1.15,2013-08-07 01:22:00,
2013-08-06 18:27:00,68.1,54.6,29.91,NNW,348,0.0,5.0,62,0.00,,,0.00,23,Wunderground v.1.15,2013-08-07 01:27:00,
2013-08-06 18:32:00,68.3,54.8,29.91,NNE,32,0.0,3.0,62,0.00,,,0.00,19,Wunderground v.1.15,2013-08-07 01:32:00,
2013-08-06 18:37:00,68.4,54.9,29.91,NNE,31,0.0,3.0,62,0.00,,,0.00,18,Wunderground v.1.15,2013-08-07 01:37:00,
2013-08-06 18:42:00,68.4,54.4,29.91,NE,36,0.0,6.0,61,0.00,,,0.00,18,Wunderground v.1.15,2013-08-07 01:42:00,
2013-08-06 18:47:00,68.4,55.3,29.90,NE,36,2.0,6.0,63,0.00,,,0.00,18,Wunderground v.1.15,2013-08-07 01:47:00,
2013-08-06 18:52:00,68.4,55.3,29.90,SSE,150,1.0,4.0,63,0.00,,,0.00,18,Wunderground v.1.15,2013-08-07 01:52:00,
2013-08-06 18:57:00,68.3,55.2,29.90,NNE,17,0.0,4.0,63,0.00,,,0.00,16,Wunderground v.1.15,2013-08-07 01:57:00,
2013-08-06 19:02:00,68.1,55.0,29.90,NNW,348,3.0,4.0,63,0.00,,,0.00,16,Wunderground v.1.15,2013-08-07 02:02:00,
2013-08-06 19:07:00,68.1,55.5,29.90,West,280,3.0,4.0,64,0.00,,,0.00,16,Wunderground v.1.15,2013-08-07 02:07:00,
2013-08-06 19:12:00,67.9,55.3,29.90,ENE,71,0.0,2.0,64,0.00,,,0.00,16,Wunderground v.1.15,2013-08-07 02:12:00,
2013-08-06 19:17:00,67.8,54.7,29.90,North,360,0.0,3.0,63,0.00,,,0.00,14,Wunderground v.1.15,2013-08-07 02:17:00,
2013-08-06 19:22:00,67.8,55.2,29.90,North,360,0.0,0.0,64,0.00,,,0.00,14,Wunderground v.1.15,2013-08-07 02:22:00,
2013-08-06 19:27:00,67.8,55.2,29.90,North,360,0.0,1.0,64,0.00,,,0.00,14,Wunderground v.1.15,2013-08-07 02:27:00,
2013-08-06 19:32:00,67.8,55.2,29.90,North,360,0.0,0.0,64,0.00,,,0.00,14,Wunderground v.1.15,2013-08-07 02:32:00,
2013-08-06 19:37:00,67.6,55.4,29.90,North,360,0.0,0.0,65,0.00,,,0.00,12,Wunderground v.1.15,2013-08-07 02:37:00,
2013-08-06 19:42:00,67.4,55.6,29.90,North,360,0.0,0.0,66,0.00,,,0.00,12,Wunderground v.1.15,2013-08-07 02:42:00,
2013-08-06 19:47:00,67.3,55.5,29.90,North,360,0.0,0.0,66,0.00,,,0.00,12,Wunderground v.1.15,2013-08-07 02:47:00,
2013-08-06 19:52:00,67.1,55.8,29.90,North,360,0.0,0.0,67,0.00,,,0.00,11,Wunderground v.1.15,2013-08-07 02:52:00,
2013-08-06 19:57:00,66.9,56.0,29.90,North,360,0.0,0.0,68,0.00,,,0.00,11,Wunderground v.1.15,2013-08-07 02:57:00,
2013-08-06 20:02:00,66.6,56.1,29.90,North,360,0.0,0.0,69,0.00,,,0.00,9,Wunderground v.1.15,2013-08-07 03:02:00,
2013-08-06 20:07:00,66.4,56.3,29.90,North,360,0.0,0.0,70,0.00,,,0.00,9,Wunderground v.1.15,2013-08-07 03:07:00,
2013-08-06 20:12:00,66.1,56.4,29.90,North,360,0.0,0.0,71,0.00,,,0.00,7,Wunderground v.1.15,2013-08-07 03:12:00,
2013-08-06 20:17:00,65.8,56.1,29.91,North,360,0.0,0.0,71,0.00,,,0.00,7,Wunderground v.1.15,2013-08-07 03:17:00,
2013-08-06 20:22:00,65.5,56.2,29.91,North,360,1.0,1.0,72,0.00,,,0.00,5,Wunderground v.1.15,2013-08-07 03:22:00,
2013-08-06 20:27:00,65.2,56.3,29.91,North,360,0.0,1.0,73,0.00,,,0.00,5,Wunderground v.1.15,2013-08-07 03:27:00,
2013-08-06 20:32:00,64.8,56.3,29.91,North,360,0.0,0.0,74,0.00,,,0.00,0,Wunderground v.1.15,2013-08-07 03:32:00,
2013-08-06 20:37:00,64.5,56.0,29.91,North,360,0.0,0.0,74,0.00,,,0.00,0,Wunderground v.1.15,2013-08-07 03:37:00,
2013-08-06 20:42:00,64.2,55.7,29.91,North,360,0.0,0.0,74,0.00,,,0.00,0,Wunderground v.1.15,2013-08-07 03:42:00,
2013-08-06 20:47:00,63.9,55.8,29.91,North,360,1.0,2.0,75,0.00,,,0.00,0,Wunderground v.1.15,2013-08-07 03:47:00,
2013-08-06 20:52:00,63.4,55.7,29.91,North,360,0.0,2.0,76,0.00,,,0.00,0,Wunderground v.1.15,2013-08-07 03:52:00,
2013-08-06 20:57:00,63.1,56.1,29.91,North,360,0.0,2.0,78,0.00,,,0.00,0,Wunderground v.1.15,2013-08-07 03:57:00,
2013-08-06 21:01:00,62.9,55.9,29.91,North,360,0.0,1.0,78,0.00,,,0.00,0,Wunderground v.1.15,2013-08-07 04:01:00,
2013-08-06 21:06:00,62.6,55.6,29.91,North,360,0.0,1.0,78,0.00,,,0.00,0,Wunderground v.1.15,2013-08-07 04:06:00,
2013-08-06 21:11:00,62.4,55.4,29.91,North,360,1.0,2.0,78,0.00,,,0.00,0,Wunderground v.1.15,2013-08-07 04:11:00,
2013-08-06 21:16:00,62.1,55.5,29.91,North,360,0.0,2.0,79,0.00,,,0.00,0,Wunderground v.1.15,2013-08-07 04:16:00,
2013-08-06 21:21:00,62.0,55.4,29.91,North,360,1.0,1.0,79,0.00,,,0.00,0,Wunderground v.1.15,2013-08-07 04:21:00,
2013-08-06 21:26:00,61.8,55.2,29.91,North,360,0.0,2.0,79,0.00,,,0.00,0,Wunderground v.1.15,2013-08-07 04:26:00,
2013-08-06 21:31:00,61.6,55.0,29.92,North,360,0.0,0.0,79,0.00,,,0.00,0,Wunderground v.1.15,2013-08-07 04:31:00,
2013-08-06 21:36:00,61.3,54.7,29.92,SSW,198,3.0,3.0,79,0.00,,,0.00,0,Wunderground v.1.15,2013-08-07 04:36:00,
2013-08-06 21:41:00,61.2,55.0,29.92,SSW,198,0.0,2.0,80,0.00,,,0.00,0,Wunderground v.1.15,2013-08-07 04:41:00,
2013-08-06 21:46:00,61.0,54.8,29.92,SSW,198,0.0,2.0,80,0.00,,,0.00,0,Wunderground v.1.15,2013-08-07 04:46:00,
2013-08-06 21:51:00,60.9,54.7,29.92,SSW,198,0.0,1.0,80,0.00,,,0.00,0,Wunderground v.1.15,2013-08-07 04:51:00,
2013-08-06 21:56:00,60.7,54.5,29.92,SSW,198,0.0,2.0,80,0.00,,,0.00,0,Wunderground v.1.15,2013-08-07 04:56:00,
2013-08-06 22:01:00,60.7,54.1,29.92,SSW,197,0.0,2.0,79,0.00,,,0.00,0,Wunderground v.1.15,2013-08-07 05:01:00,
2013-08-06 22:06:00,60.5,54.0,29.92,SSW,197,0.0,2.0,79,0.00,,,0.00,0,Wunderground v.1.15,2013-08-07 05:06:00,
2013-08-06 22:11:00,60.5,54.0,29.92,SSW,197,0.0,0.0,79,0.00,,,0.00,0,Wunderground v.1.15,2013-08-07 05:11:00,
2013-08-06 22:16:00,60.5,54.0,29.92,SSW,197,0.0,0.0,79,0.00,,,0.00,0,Wunderground v.1.15,2013-08-07 05:16:00,
2013-08-06 22:21:00,60.5,54.0,29.92,SSW,197,1.0,2.0,79,0.00,,,0.00,0,Wunderground v.1.15,2013-08-07 05:21:00,
2013-08-06 22:26:00,60.4,53.9,29.92,SSW,197,2.0,3.0,79,0.00,,,0.00,0,Wunderground v.1.15,2013-08-07 05:26:00,
2013-08-06 22:31:00,60.4,53.9,29.92,SSW,197,1.0,2.0,79,0.00,,,0.00,0,Wunderground v.1.15,2013-08-07 05:31:00,
2013-08-06 22:36:00,60.4,53.9,29.92,SSW,197,0.0,3.0,79,0.00,,,0.00,0,Wunderground v.1.15,2013-08-07 05:36:00,
2013-08-06 22:41:00,60.5,53.6,29.92,SSW,197,0.0,1.0,78,0.00,,,0.00,0,Wunderground v.1.15,2013-08-07 05:41:00,
2013-08-06 22:46:00,60.5,53.6,29.93,SSW,197,0.0,2.0,78,0.00,,,0.00,0,Wunderground v.1.15,2013-08-07 05:46:00,
2013-08-06 22:51:00,60.7,53.4,29.93,SSW,197,1.0,2.0,77,0.00,,,0.00,0,Wunderground v.1.15,2013-08-07 05:51:00,
2013-08-06 22:56:00,60.9,53.6,29.93,SSW,197,2.0,2.0,77,0.00,,,0.00,0,Wunderground v.1.15,2013-08-07 05:56:00,
2013-08-06 23:01:00,61.0,53.7,29.93,SSW,197,1.0,3.0,77,0.00,,,0.00,0,Wunderground v.1.15,2013-08-07 06:01:00,
2013-08-06 23:06:00,61.0,53.7,29.93,SSW,197,3.0,3.0,77,0.00,,,0.00,0,Wunderground v.1.15,2013-08-07 06:06:00,
2013-08-06 23:11:00,61.2,53.9,29.93,SSW,197,1.0,3.0,77,0.00,,,0.00,0,Wunderground v.1.15,2013-08-07 06:11:00,
2013-08-06 23:16:00,61.2,53.9,29.93,SSW,197,1.0,3.0,77,0.00,,,0.00,0,Wunderground v.1.15,2013-08-07 06:16:00,
2013-08-06 23:21:00,61.0,54.1,29.93,SSW,197,2.0,3.0,78,0.00,,,0.00,0,Wunderground v.1.15,2013-08-07 06:21:00,
2013-08-06 23:26:00,60.9,54.0,29.93,SSW,197,3.0,3.0,78,0.00,,,0.00,0,Wunderground v.1.15,2013-08-07 06:26:00,
2013-08-06 23:31:00,60.7,53.8,29.93,SSW,197,2.0,3.0,78,0.00,,,0.00,0,Wunderground v.1.15,2013-08-07 06:31:00,
2013-08-06 23:36:00,60.5,54.0,29.93,SSW,197,1.0,3.0,79,0.00,,,0.00,0,Wunderground v.1.15,2013-08-07 06:36:00,
2013-08-06 23:41:00,60.5,54.0,29.93,SSW,197,0.0,1.0,79,0.00,,,0.00,0,Wunderground v.1.15,2013-08-07 06:41:00,
2013-08-06 23:46:00,60.5,54.0,29.93,SSW,197,0.0,1.0,79,0.00,,,0.00,0,Wunderground v.1.15,2013-08-07 06:46:00,
2013-08-06 23:51:00,60.4,53.9,29.93,SSW,197,0.0,0.0,79,0.00,,,0.00,0,Wunderground v.1.15,2013-08-07 06:51:00,
2013-08-06 23:56:00,60.4,53.9,29.93,SSW,197,0.0,0.0,79,0.00,,,0.00,0,Wunderground v.1.15,2013-08-07 06:56:00,